Location: Niverville
(49.6028°N, 97.0419°W)
Time: 11:43:39
(UTC-05:00)

ISS - All Passes

Search period start: 25 July 2017 00:00
Search period end: 04 August 2017 00:00
Orbit: 400 x 408 km, 51.6° (Epoch: 25 July)

Date Brightness Start Highest point End Pass type
(mag) Time Alt. Az. Time Alt. Az. Time Alt. Az.
25 Jul - 00:52:19 10° W 00:55:32 58° N 00:58:45 10° ENE visible
25 Jul - 02:28:54 10° WNW 02:32:10 86° NNE 02:35:27 10° ESE visible
25 Jul - 04:05:39 10° W 04:08:24 25° SW 04:11:09 10° SSE visible
25 Jul - 22:23:34 10° SW 22:26:42 46° SSE 22:29:50 10° ENE visible
25 Jul - 23:59:54 10° W 00:03:08 64° N 00:06:24 10° ENE visible
26 Jul - 01:36:33 10° WNW 01:39:49 68° NNE 01:43:04 10° E visible
26 Jul - 03:13:07 10° W 03:16:12 39° SSW 03:19:16 10° SE visible
26 Jul - 21:31:35 10° SSW 21:34:28 29° SE 21:37:21 10° E daylight
26 Jul - 23:07:29 10° WSW 23:10:45 78° NNW 23:14:01 10° ENE visible
27 Jul - 00:44:10 10° WNW 00:47:24 59° N 00:50:39 10° E visible
27 Jul - 02:20:42 10° WNW 02:23:56 60° SSW 02:27:09 10° SE visible
27 Jul - 03:58:11 10° WSW 03:59:53 14° SW 04:01:35 10° S night (unlit)
27 Jul - 20:39:55 10° S 20:42:17 19° SE 20:44:40 10° E daylight
27 Jul - 22:15:08 10° WSW 22:18:22 79° SSE 22:21:39 10° ENE visible
27 Jul - 23:51:45 10° W 23:54:59 57° N 23:58:12 10° E visible
28 Jul - 01:28:19 10° WNW 01:31:36 86° SSW 01:34:51 10° ESE visible
28 Jul - 03:05:10 10° W 03:07:45 22° SW 03:10:19 10° SSE night (unlit)
28 Jul - 19:48:58 10° SSE 19:50:10 12° SE 19:51:21 10° ESE daylight
28 Jul - 21:22:52 10° SW 21:26:03 53° SSE 21:29:14 10° ENE daylight
28 Jul - 22:59:18 10° W 23:02:32 61° N 23:05:47 10° ENE visible
29 Jul - 00:35:56 10° WNW 00:39:12 73° NNE 00:42:28 10° E visible
29 Jul - 02:12:32 10° W 02:15:32 34° SSW 02:18:31 10° SE visible
29 Jul - 20:30:46 10° SW 20:33:46 34° SSE 20:36:46 10° E daylight
29 Jul - 22:06:51 10° W 22:10:06 72° NNW 22:13:22 10° ENE visible
29 Jul - 23:43:31 10° WNW 23:46:46 62° N 23:50:00 10° E visible
30 Jul - 01:20:04 10° WNW 01:23:15 52° SSW 01:26:26 10° SE visible
30 Jul - 02:58:02 10° WSW 02:59:08 11° SW 03:00:13 10° SSW night (unlit)
30 Jul - 19:38:56 10° SSW 19:41:32 22° SE 19:44:07 10° E daylight
30 Jul - 21:14:25 10° WSW 21:17:41 87° SSE 21:20:57 10° ENE daylight
30 Jul - 22:51:04 10° W 22:54:18 57° N 22:57:31 10° E visible
31 Jul - 00:27:38 10° WNW 00:30:53 78° SSW 00:34:08 10° ESE visible
31 Jul - 02:04:37 10° W 02:06:58 18° SW 02:09:19 10° S visible
31 Jul - 18:47:35 10° S 18:49:20 14° SE 18:51:05 10° ESE daylight
31 Jul - 20:22:05 10° WSW 20:25:18 61° SSE 20:28:31 10° ENE daylight
31 Jul - 21:58:35 10° W 22:01:49 59° N 22:05:03 10° ENE visible
31 Jul - 23:35:12 10° WNW 23:38:28 79° NNE 23:41:44 10° ESE visible
01 Aug - 01:11:52 10° W 01:14:45 29° SW 01:17:37 10° SSE visible
01 Aug - 19:29:52 10° SW 19:32:57 40° SSE 19:36:02 10° E daylight
01 Aug - 21:06:05 10° W 21:09:20 68° N 21:12:36 10° ENE daylight
01 Aug - 22:42:46 10° WNW 22:46:01 64° N 22:49:15 10° E visible
02 Aug - 00:19:18 10° WNW 00:22:26 45° SSW 00:25:34 10° SE visible
02 Aug - 18:37:53 10° SSW 18:40:39 26° SE 18:43:25 10° E daylight
02 Aug - 20:13:36 10° WSW 20:16:52 85° NNW 20:20:09 10° ENE daylight
02 Aug - 21:50:17 10° WNW 21:53:31 58° N 21:56:44 10° E visible
02 Aug - 23:26:49 10° WNW 23:30:03 69° SSW 23:33:18 10° ESE visible
03 Aug - 01:04:01 10° W 01:06:05 16° SW 01:08:08 10° S visible
03 Aug - 17:46:17 10° S 17:48:24 16° SE 17:50:32 10° E daylight
03 Aug - 19:21:11 10° WSW 19:24:26 70° SSE 19:27:41 10° ENE daylight
03 Aug - 20:57:46 10° W 21:01:00 58° N 21:04:13 10° ENE daylight
03 Aug - 22:34:21 10° WNW 22:37:38 86° NNE 22:40:54 10° ESE visible
